User: anonymous   Login
Location: Caltech
(34.1382°N, 118.1253°W)
Time: 08:09:37
(UTC-08:00)
Language:

Aureole 3 Rocket - Orbit

View from above orbital plane
View from above orbital plane
View from above satellite
View from above satellite

Ground track
Ground track

The orbit data is extracted from the following two-line orbital elements,

1 12849U 81094B   15030.78705175  .00002119  00000-0  20022-3 0  1012
2 12849 082.4951 112.6160 0908703 228.0933 123.9212 13.48710379624786
Epoch (UTC): 30 January 2015 18:53:21
Eccentricity: 0.0908703
inclination: 82.4951°
perigee height: 399 km
apogee height: 1754 km
right ascension of ascending node: 112.6160°
argument of perigee: 228.0933°
revolutions per day: 13.48710379
mean anomaly at epoch: 123.9212°
orbit number at epoch: 62478

The dashed part of the orbit path shows where the satellite is in the earth's shadow,  

DLR